Big Rapids, MI

6:34 AM EST on November 19, 2017 (GMT -0500)
Roben-Hood

Weather History for KRQB - January, 2013

Change the Weather History Date:

Friday, January 4, 2013

  Actual Average Record
Temperature  
Mean Temperature 28 °F -  
Max Temperature 30 °F 30 °F 51 °F (2007)
Min Temperature 25 °F 12 °F -23 °F (1981)
Degree Days  
Heating Degree Days 38    
Moisture  
Dew Point 20 °F    
Average Humidity 73    
Maximum Humidity 80    
Minimum Humidity 63    
Precipitation  
Precipitation 0.00 in - - ()
Sea Level Pressure  
Sea Level Pressure 30.00 in    
Wind  
Wind Speed 11 mph (WSW)    
Max Wind Speed 17 mph    
Max Gust Speed 25 mph    
Visibility 10 miles    
Events      
Averages and records for this station are not official NWS values.
T = Trace of Precipitation, MM = Missing Value Source: NWS Daily Summary

Daily Weather History Graph

Daily Weather History Graph

Search for Another Location

Airport or City:

Trip Planner

Search our weather history database for the weather conditions in past years. The results will help you decide how hot, cold, wet, or windy it might be!

Date:

Astronomy

Jan. 04, 2013 Rise Set
Actual Time 8:15 AM EST 5:18 PM EST
Civil Twilight 7:43 AM EST 5:51 PM EST
Nautical Twilight 7:07 AM EST 6:27 PM EST
Astronomical Twilight 6:32 AM EST 7:02 PM EST
Moon 12:06 AM EST (1/4) 11:43 AM EST (1/4)
Length of Visible Light 10h 08m
Length of Day
9h 02m
Waning Gibbous, 55% of the Moon is Illuminated
Jan 4
Waning Gibbous
Jan 4
Last Quarter
Jan 11
New
Jan 18
First Quarter
Jan 26
Full

Hourly Weather History & Observations

Time (EST) Temp. Windchill Dew Point Humidity Pressure Visibility Wind Dir Wind Speed Gust Speed Precip Events Conditions
12:14 AM 28.4 °F 18.5 °F 20.3 °F 72% 30.04 in 10.0 mi West 11.5 mph 18.4 mph N/A   Overcast
12:34 AM 28.4 °F 16.6 °F 20.3 °F 72% 30.03 in 10.0 mi WSW 16.1 mph 25.3 mph N/A   Overcast
12:54 AM 28.4 °F 18.0 °F 20.3 °F 72% 30.03 in 10.0 mi West 12.7 mph 16.1 mph N/A   Overcast
1:14 AM 28.8 °F 19.5 °F 20.3 °F 71% 30.03 in 10.0 mi West 10.4 mph 17.3 mph N/A   Overcast
1:34 AM 28.8 °F 20.2 °F 20.5 °F 71% 30.02 in 10.0 mi West 9.2 mph 25.3 mph N/A   Overcast
1:54 AM 28.8 °F 19.5 °F 20.5 °F 71% 30.01 in 10.0 mi West 10.4 mph 21.9 mph N/A   Overcast
2:14 AM 28.8 °F 19.0 °F 20.7 °F 72% 30.01 in 10.0 mi West 11.5 mph 23.0 mph N/A   Overcast
2:34 AM 28.4 °F 18.0 °F 20.3 °F 72% 30.00 in 10.0 mi West 12.7 mph 23.0 mph N/A   Overcast
2:54 AM 28.2 °F 17.7 °F 20.3 °F 72% 30.00 in 10.0 mi WSW 12.7 mph 19.6 mph N/A   Overcast
3:14 AM 27.9 °F 16.8 °F 20.1 °F 73% 30.00 in 10.0 mi West 13.8 mph 20.7 mph N/A   Overcast
3:34 AM 27.5 °F 19.3 °F 19.6 °F 72% 30.01 in 10.0 mi West 8.1 mph 17.3 mph N/A   Mostly Cloudy
3:54 AM 26.6 °F 16.2 °F 19.2 °F 74% 30.00 in 10.0 mi West 11.5 mph 19.6 mph N/A   Mostly Cloudy
4:14 AM 26.4 °F 18.9 °F 18.7 °F 73% 29.99 in 10.0 mi WSW 6.9 mph 20.7 mph N/A   Scattered Clouds
4:34 AM 26.1 °F 16.8 °F 18.5 °F 73% 29.98 in 10.0 mi WSW 9.2 mph 18.4 mph N/A   Scattered Clouds
4:54 AM 25.7 °F 15.7 °F 18.5 °F 74% 29.97 in 10.0 mi WSW 10.4 mph 19.6 mph N/A   Scattered Clouds
5:14 AM 25.5 °F 15.5 °F 18.5 °F 75% 29.97 in 10.0 mi West 10.4 mph - N/A   Scattered Clouds
5:34 AM 25.5 °F 14.9 °F 18.5 °F 75% 29.98 in 10.0 mi West 11.5 mph - N/A   Scattered Clouds
5:55 AM 25.3 °F 16.0 °F 18.3 °F 75% 29.97 in 10.0 mi WSW 9.2 mph - N/A   Scattered Clouds
6:14 AM 25.2 °F 15.7 °F 17.6 °F 73% 29.97 in 10.0 mi WSW 9.2 mph - N/A   Clear
6:34 AM 25.0 °F 15.5 °F 17.2 °F 72% 29.97 in 10.0 mi WSW 9.2 mph 21.9 mph N/A   Clear
6:55 AM 25.2 °F 13.9 °F 17.6 °F 73% 29.98 in 10.0 mi West 12.7 mph 17.3 mph N/A   Scattered Clouds
7:14 AM 25.7 °F 15.1 °F 18.5 °F 74% 29.99 in 10.0 mi West 11.5 mph 19.6 mph N/A   Mostly Cloudy
7:34 AM 26.4 °F 16.6 °F 19.4 °F 75% 29.99 in 10.0 mi West 10.4 mph 16.1 mph N/A   Overcast
8:14 AM 26.6 °F 16.2 °F 19.6 °F 75% 29.97 in 10.0 mi WSW 11.5 mph 19.6 mph N/A   Overcast
8:34 AM 26.4 °F 15.0 °F 19.4 °F 75% 29.96 in 10.0 mi WSW 13.8 mph 21.9 mph N/A   Overcast
8:54 AM 26.4 °F 17.3 °F 19.4 °F 75% 29.96 in 10.0 mi WSW 9.2 mph - N/A   Overcast
9:14 AM 26.4 °F 18.0 °F 19.4 °F 75% 29.96 in 10.0 mi WSW 8.1 mph 17.3 mph N/A   Overcast
9:34 AM 26.6 °F 15.7 °F 19.8 °F 75% 29.96 in 10.0 mi SW 12.7 mph 19.6 mph N/A   Overcast
9:54 AM 27.3 °F 16.1 °F 20.1 °F 74% 29.96 in 10.0 mi WSW 13.8 mph 19.6 mph N/A   Overcast
10:14 AM 27.5 °F 18.0 °F 20.1 °F 74% 29.96 in 10.0 mi WSW 10.4 mph 21.9 mph N/A   Overcast
10:34 AM 27.9 °F 15.9 °F 20.7 °F 74% 29.97 in 10.0 mi WSW 16.1 mph 21.9 mph N/A   Overcast
10:54 AM 28.2 °F 16.8 °F 21.0 °F 74% 29.96 in 10.0 mi WSW 15.0 mph 24.2 mph N/A   Overcast
11:14 AM 28.4 °F 18.5 °F 21.2 °F 74% 29.97 in 10.0 mi West 11.5 mph 20.7 mph N/A   Overcast
11:35 AM 28.9 °F 20.4 °F 21.2 °F 73% 29.97 in 10.0 mi WSW 9.2 mph 18.4 mph N/A   Overcast
11:54 AM 29.3 °F 17.3 °F 21.0 °F 71% 29.97 in 10.0 mi WSW 17.3 mph 24.2 mph N/A   Overcast
12:14 PM 29.3 °F 18.6 °F 20.7 °F 70% 29.96 in 10.0 mi West 13.8 mph 23.0 mph N/A   Overcast
12:34 PM 29.3 °F 18.6 °F 20.7 °F 70% 29.96 in 10.0 mi West 13.8 mph 20.7 mph N/A   Overcast
12:54 PM 29.3 °F 18.6 °F 20.7 °F 70% 29.96 in 10.0 mi West 13.8 mph 24.2 mph N/A   Overcast
1:14 PM 29.3 °F 19.6 °F 20.7 °F 70% 29.95 in 10.0 mi West 11.5 mph 20.7 mph N/A   Overcast
1:34 PM 29.7 °F 19.1 °F 20.8 °F 70% 29.95 in 10.0 mi West 13.8 mph 19.6 mph N/A   Overcast
1:55 PM 29.7 °F 18.2 °F 20.3 °F 68% 29.94 in 10.0 mi West 16.1 mph 21.9 mph N/A   Overcast
2:14 PM 29.3 °F 18.6 °F 20.5 °F 70% 29.94 in 10.0 mi West 13.8 mph 21.9 mph N/A   Overcast
2:34 PM 30.7 °F 21.4 °F 20.1 °F 65% 29.94 in 10.0 mi WSW 11.5 mph 17.3 mph N/A   Overcast
2:54 PM 30.2 °F 19.8 °F 19.6 °F 65% 29.94 in 10.0 mi West 13.8 mph 19.6 mph N/A   Overcast
3:14 PM 30.2 °F 20.2 °F 18.9 °F 63% 29.95 in 10.0 mi West 12.7 mph 23.0 mph N/A   Scattered Clouds
3:34 PM 29.7 °F 18.6 °F 19.0 °F 65% 29.96 in 10.0 mi WSW 15.0 mph 20.7 mph N/A   Mostly Cloudy
3:54 PM 29.3 °F 19.1 °F 18.9 °F 65% 29.97 in 10.0 mi West 12.7 mph 21.9 mph N/A   Mostly Cloudy
4:14 PM 29.7 °F 20.7 °F 19.0 °F 65% 29.97 in 10.0 mi West 10.4 mph 18.4 mph N/A   Scattered Clouds
4:34 PM 29.5 °F 18.4 °F 19.0 °F 65% 29.98 in 10.0 mi West 15.0 mph 20.7 mph N/A   Clear
4:54 PM 29.1 °F 17.9 °F 19.2 °F 67% 29.99 in 10.0 mi West 15.0 mph 20.7 mph N/A   Clear
5:15 PM 28.8 °F 19.0 °F 19.4 °F 68% 29.99 in 10.0 mi West 11.5 mph 21.9 mph N/A   Clear
5:34 PM 28.4 °F 18.5 °F 19.4 °F 69% 29.99 in 10.0 mi West 11.5 mph - N/A   Clear
5:54 PM 28.4 °F 19.1 °F 19.9 °F 71% 30.00 in 10.0 mi West 10.4 mph - N/A   Clear
6:15 PM 27.9 °F 20.6 °F 20.1 °F 73% 30.01 in 10.0 mi WSW 6.9 mph - N/A   Clear
6:34 PM 27.7 °F 19.6 °F 20.1 °F 73% 30.02 in 10.0 mi WSW 8.1 mph - N/A   Clear
6:54 PM 27.3 °F 20.9 °F 20.1 °F 74% 30.03 in 10.0 mi West 5.8 mph - N/A   Clear
7:14 PM 27.1 °F 20.7 °F 20.5 °F 76% 30.04 in 10.0 mi West 5.8 mph - N/A   Clear
7:34 PM 26.8 °F 20.2 °F 20.5 °F 77% 30.04 in 10.0 mi WSW 5.8 mph - N/A   Clear
7:54 PM 26.8 °F 21.4 °F 20.8 °F 78% 30.06 in 10.0 mi WSW 4.6 mph - N/A   Clear
8:14 PM 26.6 °F 22.6 °F 21.0 °F 79% 30.06 in 10.0 mi WSW 3.5 mph - N/A   Clear
8:34 PM 26.8 °F 21.4 °F 21.2 °F 79% 30.07 in 10.0 mi WSW 4.6 mph - N/A   Clear
8:55 PM 27.0 °F 21.6 °F 21.6 °F 80% 30.06 in 10.0 mi WSW 4.6 mph - N/A   Clear
9:14 PM 27.0 °F 20.5 °F 21.6 °F 80% 30.06 in 10.0 mi WSW 5.8 mph - N/A   Clear
9:34 PM 27.5 °F 19.3 °F 22.1 °F 80% 30.07 in 10.0 mi West 8.1 mph - N/A   Clear
9:54 PM 28.0 °F 20.8 °F 22.5 °F 80% 30.06 in 10.0 mi WSW 6.9 mph - N/A   Clear
10:14 PM 27.9 °F 22.6 °F 22.3 °F 80% 30.07 in 10.0 mi West 4.6 mph - N/A   Clear
10:35 PM 27.7 °F 21.3 °F 22.3 °F 80% 30.07 in 10.0 mi WSW 5.8 mph - N/A   Clear
10:54 PM 27.9 °F 21.5 °F 22.5 °F 80% 30.08 in 10.0 mi WSW 5.8 mph - N/A   Clear
11:14 PM 28.0 °F 21.7 °F 22.6 °F 80% 30.09 in 10.0 mi WSW 5.8 mph - N/A   Clear
11:35 PM 28.0 °F 21.7 °F 22.5 °F 80% 30.10 in 10.0 mi WSW 5.8 mph - N/A   Clear
11:54 PM 28.0 °F 20.8 °F 22.5 °F 80% 30.10 in 10.0 mi WSW 6.9 mph - N/A   Clear